Home > Time Zones > World Clock > Weather > U.S.A. > Hilo > Past weeks

Flag for U.S.A. Weather past 2 weeks in Hilo, Hawaii, U.S.A.

Now
65 °F

Clear.


Feels Like: 65 °F
Forecast: 67 / 83 °F
Wind: No wind

Location: Hilo International Airport

Current Time: Jan 30, 2015 at 2:47:22 AM

Latest Report: Jan 30, 2015 at 1:53 AM


Visibility: 10 mi

Pressure: 29.90 "Hg

Humidity: 78%

Dew point: 58 °F

Location of HiloLocation

Historic Weather in Hilo — Graph

°F

Hilo temperature yesterday

Maximum temperature yesterday: 86 °F (at 1:30 PM)
Minimum temperature yesterday: 64 °F (at 4:53 AM)
Average temperature yesterday: 73 °F

Past Weeks' High & Low Weather Summary

 TemperatureHumidityPressure
High86 °F (Jan 29, 1:30 PM)94% (Jan 24, 7:23 PM)30.12 "Hg (Jan 24, 7:23 PM)
Low63 °F (Jan 22, 5:53 AM)42% (Jan 16, 11:00 AM)29.84 "Hg (Jan 29, 1:53 PM)
Average73 °F73%30.00 "Hg
* Reported Jan 15 1:53 AM — Jan 30 1:53 AM, Hilo, Weather by CustomWeather, © 2014

Note: Actual official high and low records may vary slightly from our data, if they occured in-between our weather recording intervals... More about our weather records

Advertising

Hilo weather history for previous 24 hours

 ConditionsComfort  
Time TempWeatherWind HumidityBarometerVisibility
1:53 AM
Jan 30
65 °FClear.No wind78%29.90 "Hg10 mi
12:53 AM67 °FClear.7 mph76%29.90 "Hg10 mi
11:53 PM
Jan 29
66 °FClear.6 mph81%29.90 "Hg10 mi
10:53 PM67 °FClear.6 mph81%29.89 "Hg10 mi
10:07 PM66 °FPassing clouds.7 mph88%29.89 "Hg10 mi
9:53 PM67 °FClear.7 mph87%29.88 "Hg10 mi
8:53 PM68 °FClear.No wind90%29.89 "Hg10 mi
7:53 PM71 °FClear.5 mph84%29.88 "Hg10 mi
6:53 PM74 °FPassing clouds.5 mph76%29.88 "Hg10 mi
5:53 PM76 °FOvercast.6 mph69%29.88 "Hg10 mi
4:53 PM77 °FOvercast.7 mph69%29.88 "Hg10 mi
3:53 PM77 °FMostly cloudy.13 mph66%29.87 "Hg10 mi
3:18 PM79 °FBroken clouds.16 mph65%29.87 "Hg10 mi
2:53 PM80 °FPassing clouds.15 mph60%29.85 "Hg10 mi
1:53 PM81 °FScattered clouds.15 mph62%29.84 "Hg10 mi
1:30 PM86 °FPassing clouds.20 mph49%29.85 "Hg10 mi
12:53 PM85 °FScattered clouds.20 mph50%29.85 "Hg10 mi
11:53 AM84 °FPassing clouds.10 mph45%29.90 "Hg10 mi
10:53 AM82 °FPassing clouds.8 mph49%29.94 "Hg10 mi
9:53 AM79 °FPassing clouds.8 mph58%29.96 "Hg10 mi
8:53 AM73 °FPassing clouds.No wind59%29.96 "Hg10 mi
7:53 AM68 °FPassing clouds.6 mph70%29.95 "Hg10 mi
6:53 AM64 °FClear.7 mph78%29.94 "Hg10 mi
5:53 AM64 °FClear.6 mph78%29.91 "Hg10 mi
4:53 AM64 °FClear.8 mph78%29.90 "Hg10 mi
3:53 AM65 °FClear.8 mph76%29.91 "Hg10 mi
2:53 AM66 °FClear.7 mph78%29.92 "Hg10 mi
Weather by CustomWeather, © 2014

See weather overviewHow to use our weather pages